Location: Hawks Ness
(60.2333°N, 1.1667°W)
Time: 05:58:57
(UTC+00:00)

ATLAS 3B R/B - Pass Details

Date: 22 October 2019
Orbit: 1028 x 1167 km, 63.8° (Epoch: 07 November)

Event Time Altitude Azimuth Distance (km) Brightness Sun altitude
Exits shadow 03:50:38 33° 199° (SSW) 1,683 3.4 -23.9°
Drops below altitude 10° 03:54:58 10° 167° (SSE) 2,880 4.9 -23.4°
Sets 03:57:47 0° 160° (SSE) 3,851 5.6 -23.1°
